301  
SXUS52 KTAE 222118  
OSOTAE  
OSOTAE  
NORTH FLORIDA/SOUTH ALABAMA/SOUTHWEST GEORGIA WEATHER ROUNDUP  
NATIONAL WEATHER SERVICE TALLAHASSEE FLORIDA  
500 PM EDT MON MAY 22 2017  
 
NOTE: "FAIR" INDICATES FEW OR NO CLOUDS BELOW 12,000 FEET WITH NO  
SIGNIFICANT WEATHER AND/OR OBSTRUCTIONS TO VISIBILITY.  
 
!FLZ017-115-028-034-025-222200   
..NORTH FLORIDA
 
 
 
CITY SKY/WX TMP DP RH WIND PRES REMARKS  
TALLAHASSEE PTSUNNY 83 72 69 S10 29.95F  
APALACHICOLA CLOUDY 82 76 81 SW12 29.97F  
PERRY PTSUNNY 83 70 65 SW13 29.96F  
CROSS CITY CLOUDY 88 68 51 SW14 29.96F HX 91  
JACKSONVILLE TSTM 77 70 79 SE13G24 29.94R  

 
 
!FLZ112-006-005-002-011-222200   
..FLORIDA PANHANDLE
 
 
 
CITY SKY/WX TMP DP RH WIND PRES REMARKS  
MARIANNA MOSUNNY 86 69 56 W10 29.93F HX 90  
BONIFAY NOT AVBL  
PANAMA CITY NW FAIR 82 71 69 S10 29.95F  
TYNDALL AFB PTSUNNY 82 73 75 SW9 29.98S  
TYND DRONE APT FAIR 80 74 83 S8 29.96F  
DE FUNIAK SPR FAIR 81 69 66 S7 29.96F  
EGLIN AFB PTSUNNY 81 70 71 S9 29.95F  
DESTIN CLOUDY 83 77 82 S7 29.96S HX 92  
HURLBURT PTSUNNY 82 68 62 S8 29.94F  
CRESTVIEW CLOUDY 82 70 66 S6 29.96F  
PENSACOLA CLOUDY 81 69 67 S8 29.96F  

 
 
!ALZ063-066-222200   
..SOUTH ALABAMA
 
 
 
CITY SKY/WX TMP DP RH WIND PRES REMARKS  
DOTHAN MOSUNNY 84 68 58 SW8 29.98F  
OZARK CAIRNS PTSUNNY 84 69 59 SW7 29.94F  
FT RUCKER HELI MOSUNNY 85 69 58 SW8 29.93F  
RUCKER HELI 3 FAIR 84 67 56 W8 29.94S  
RUCKER HELI 2 FAIR 83 68 60 CALM 29.93F HAZE  
FLORALA APT CLOUDY 83 67 58 VRB5 29.96F  
ANDALUSIA CLOUDY 86 66 51 MISG 29.94F  
TROY PTSUNNY 83 69 62 S8 29.95F  
EUFALA FAIR 86 71 60 S5 29.92F HX 91  
MOBILE CLOUDY 78 69 73 W5 29.99F  

 
 
!GAZ120>161-222200   
..SOUTHWEST AND SOUTH CENTRAL GEORGIA
 
 
 
CITY SKY/WX TMP DP RH WIND PRES REMARKS  
THOMASVILLE FAIR 79 79 100 CALM 29.96F  
BAINBRIDGE MOSUNNY 86 68 54 NW8 29.94F  
MOODY AFB MOSUNNY 87 69 54 W12G20 29.93F HX 91  
VALDOSTA MOSUNNY 84 71 65 VRB5 29.95F  
MOULTRIE MOSUNNY 77 72 83 SW8 29.96F  
BLAKELY MOSUNNY 88 66 48 SW9 29.95F HX 90  
ALBANY MOSUNNY 87 68 52 W13 29.94F HX 90  
TIFTON FAIR 86 70 58 S8 29.93F HX 90  
FITZGERALD FAIR 86 71 59 S8 29.95F HX 92  
CORDELE FAIR 91 66 43 W8 29.93F HX 93  
AMERICUS MOCLDY 82 63 51 SW5 29.95F  
HOMERVILLE PTSUNNY N/A N/A N/A W6 29.95F  

 
 
!GMZ750-755-770-775-222200   
..COASTAL AND BUOY OBS
 
 
 
STATION/POSITION TIME TEMP WIND PRES VSBY WAVE  
AIR SEA DIR/SP/G HT/PER  
(UTC) (F) (DEG/KT/KT) (MB) (MI) (FT/S)  
KEATON BEACH 2100 79 240/ 11/ 12 1014.4F  
CEDAR KEY 2100 81 260/ 8/ 12 1015.4F  
C TOWER 2100 78 190/ 13/ 14 1015.2F  
APALACHICOLA BUO 2050 78 79 190/ 12/ 14 1014.5F 2/ 8  
PANAMA CITY BUOY 2050 78 78 190/ 6/ 8 1014.4F 2/ 8  
MOBILE BUOY 2100 78 78 140/ 4/ 6 1014.5  
ORANGE BCH AL BU 2050 77 81 210/ 6/ 8 1014.6F 2/ 6  

 
 
 
CLICK HERE TO GO TO PREVIOUS BULLETINS.

The Nexlab FL Page
The Nexlab GA Page
The Nexlab AL Page Main Text Page